カタログに戻る

GLOBALSTAR M053

運用中通信MEO
NORAD 25886·PAYLOAD·🇺🇸 United States

打ち上げ Aug 17, 1999 から Cape Canaveral Space Force Station

Loading…

次のパス (今後24時間)

TLE

最新Source: Space-Track

元期: Sep 14, 2026, 18:58 UTC

1 25886U 99043D   26257.79065205 -.00000056  00000-0  38136-3 0  9996
2 25886  51.9967 189.0508 0003280 123.2747 248.7259 11.27673278170737

AllMySatでGLOBALSTAR M053をリアルタイム追跡

Download on the App Store